DW0487 Weather Reports


time (UTC)temp
C
wind
direction
speed
KPH
gust
KPH
rain 1hr
cm
rain 24hr
cm
rain mn
cm
humidity
%
barometer
mb
20200924091519 15 98 0.0 1.6 0.00 0.05 0.03 86 1010.0
20200924090027 14 66 0.0 6.4 0.00 0.05 0.03 89 1010.1
20200924084518 13 52 0.0 4.8 0.00 0.05 0.03 90 1010.1
20200924083009 13 63 0.0 1.6 0.00 0.05 0.03 92 1010.0
20200924081648 12 54 0.0 0.0 0.00 0.05 0.03 92 1010.1
20200924081517 12 54 0.0 0.0 0.00 0.05 0.03 92 1010.0
20200924080204 11 57 0.0 0.0 0.00 0.05 0.03 92 1010.0
20200924074624 11 57 0.0 1.6 0.00 0.15 0.03 92 1010.0
20200924073226 11 65 0.0 0.0 0.00 0.15 0.03 92 1010.1
20200924071807 11 62 0.0 0.0 0.00 0.15 0.03 93 1010.0
20200924070216 10 64 0.0 1.6 0.00 0.15 0.03 92 1010.0
20200924064725 10 333 0.0 0.0 0.00 0.41 0.03 93 1009.9
20200924063215 9 42 0.0 0.0 0.03 0.41 0.03 93 1009.9
20200924061611 9 42 0.0 0.0 0.03 0.41 0.03 93 1009.9
20200924060103 9 360 0.0 1.6 0.03 0.41 0.03 93 1009.9
20200924054626 9 66 0.0 1.6 0.03 0.48 0.03 93 1009.8
20200924053141 9 17 0.0 0.0 0.00 0.46 0.00 93 1009.5
20200924051601 9 17 0.0 0.0 0.00 0.46 0.00 93 1009.4
20200924050047 9 17 0.0 0.0 0.00 0.46 0.00 93 1009.4
20200924044544 9 21 0.0 0.0 0.00 0.46 0.00 92 1009.1
20200924043047 9 21 0.0 0.0 0.00 0.46 0.00 92 1009.0
20200924041607 10 22 0.0 0.0 0.00 0.46 0.00 93 1009.1
20200924040121 10 21 0.0 0.0 0.00 0.46 0.00 92 1008.9
20200924034605 10 21 0.0 0.0 0.00 0.46 0.00 92 1009.1
20200924033032 10 69 0.0 0.0 0.00 0.46 0.00 92 1008.9
20200924031600 10 69 0.0 0.0 0.00 0.46 0.00 92 1009.0
20200924030031 10 69 0.0 0.0 0.00 0.46 0.00 92 1009.1
20200924024559 10 129 0.0 0.0 0.00 0.46 0.00 92 1009.2
20200924023030 10 77 0.0 0.0 0.00 0.46 0.00 92 1009.1
20200924021530 10 77 0.0 1.6 0.00 0.46 0.00 92 1009.0
20200924020038 10 78 0.0 0.0 0.00 0.46 0.00 92 1009.1
20200924014520 11 78 0.0 0.0 0.00 0.46 0.00 92 1009.0
20200924013024 11 26 0.0 0.0 0.00 0.46 0.00 92 1008.9
20200924011539 11 38 0.0 0.0 0.00 0.46 0.00 92 1008.9
20200924010055 11 87 0.0 0.0 0.00 0.46 0.00 92 1009.0
20200924004521 11 240 0.0 0.0 0.00 0.46 0.00 92 1009.0
20200924003027 11 177 0.0 1.6 0.00 0.46 0.00 92 1009.0
20200924001523 11 15 0.0 0.0 0.00 0.46 0.00 92 1009.0
20200924000037 11 15 0.0 0.0 0.00 0.46 0.00 92 1009.0
20200923234526 11 11 0.0 0.0 0.00 0.46 0.00 92 1009.0
20200923233019 11 49 0.0 1.6 0.00 0.46 0.00 92 1009.0
20200923231520 11 336 0.0 1.6 0.00 0.46 0.00 92 1009.0
20200923230038 11 342 0.0 0.0 0.00 0.46 0.00 92 1009.1
20200923224517 11 62 0.0 1.6 0.00 0.46 0.00 92 1009.1
20200923223025 11 64 0.0 1.6 0.00 0.46 0.00 92 1009.0
20200923221517 11 5 0.0 0.0 0.00 0.46 0.00 92 1009.1
20200923220027 11 34 0.0 1.6 0.00 0.46 0.46 92 1009.1
20200923214516 11 34 0.0 0.0 0.00 0.46 0.46 92 1009.2
20200923213021 11 34 0.0 0.0 0.00 0.46 0.46 92 1009.1
20200923211516 11 34 0.0 0.0 0.00 0.46 0.46 92 1009.2
20200923210007 11 34 0.0 0.0 0.00 0.46 0.46 92 1009.3
20200923204511 11 34 0.0 0.0 0.00 0.46 0.46 92 1009.5
20200923203007 12 34 0.0 0.0 0.00 0.46 0.46 92 1009.4
20200923201504 12 34 0.0 0.0 0.00 0.46 0.46 92 1009.4
20200923200019 12 34 0.0 0.0 0.00 0.46 0.46 92 1009.4
20200923194726 12 34 0.0 0.0 0.00 0.46 0.46 92 1009.3
20200923193148 12 34 0.0 0.0 0.00 0.46 0.46 92 1009.2
20200923191527 12 34 0.0 0.0 0.00 0.46 0.46 91 1009.1
20200923190020 12 34 0.0 0.0 0.00 0.46 0.46 91 1009.1
20200923184645 12 34 0.0 0.0 0.00 0.46 0.46 91 1009.1
20200923183048 12 34 0.0 1.6 0.00 0.46 0.46 91 1008.9
20200923181516 12 30 0.0 0.0 0.00 0.46 0.46 91 1008.9
20200923180152 13 37 0.0 0.0 0.00 0.46 0.46 91 1008.8
20200923174720 13 37 0.0 1.6 0.00 0.46 0.46 91 1008.8
20200923173149 13 61 0.0 1.6 0.03 0.46 0.46 91 1008.8
20200923171749 13 68 0.0 0.0 0.05 0.46 0.46 91 1008.7
20200923170101 13 31 0.0 1.6 0.05 0.46 0.46 90 1008.7
20200923164620 13 83 0.0 1.6 0.05 0.46 0.46 90 1008.5
20200923163034 14 9 0.0 8.0 0.03 0.43 0.43 88 1008.5
20200923161606 15 44 0.0 9.7 0.00 0.43 0.43 85 1008.2
20200923160035 15 67 3.2 12.9 0.00 0.43 0.43 85 1007.9
20200923154617 15 9 4.8 9.7 0.00 0.43 0.43 84 1007.8
20200923153024 16 25 3.2 8.0 0.00 0.43 0.43 84 1007.7
20200923151549 16 41 3.2 8.0 0.00 0.43 0.43 85 1007.7
20200923150109 16 60 0.0 4.8 0.00 0.43 0.43 86 1007.8
20200923144526 16 42 4.8 8.0 0.00 0.43 0.43 85 1007.9
20200923143034 16 44 4.8 9.7 0.00 0.43 0.43 82 1007.9
20200923141545 16 13 4.8 8.0 0.00 0.43 0.43 85 1008.0
20200923140110 16 36 0.0 8.0 0.00 0.43 0.43 85 1008.0
20200923134521 16 55 0.0 3.2 0.00 0.43 0.43 83 1008.1
20200923133027 16 55 0.0 3.2 0.00 0.43 0.43 85 1008.2
20200923131516 16 39 0.0 0.0 0.00 0.43 0.43 84 1008.4
20200923130050 15 39 0.0 3.2 0.00 0.43 0.43 86 1008.6
20200923124517 15 50 0.0 0.0 0.00 0.43 0.43 88 1008.6
20200923123009 15 47 0.0 1.6 0.00 0.43 0.43 88 1008.7
20200923121707 15 47 0.0 0.0 0.00 0.43 0.43 86 1008.7
20200923120234 15 47 0.0 0.0 0.00 0.43 0.43 89 1008.7
20200923114714 15 47 0.0 3.2 0.00 0.43 0.43 89 1008.7
20200923113138 15 46 0.0 1.6 0.00 0.43 0.43 89 1008.9
20200923111816 14 46 0.0 0.0 0.00 0.43 0.43 89 1009.0
20200923110133 15 20 0.0 1.6 0.00 0.43 0.43 90 1009.1
20200923104630 14 14 0.0 0.0 0.00 0.43 0.43 90 1009.1
20200923103055 14 67 0.0 1.6 0.00 0.43 0.43 91 1009.1
20200923101619 13 24 0.0 1.6 0.00 0.43 0.43 91 1009.3
20200923100113 13 14 0.0 1.6 0.00 0.43 0.43 91 1009.3
20200923094603 13 14 0.0 0.0 0.00 0.43 0.43 91 1009.3
20200923093052 13 13 0.0 1.6 0.00 0.43 0.43 91 1009.3